DW6233 Weather Reports


Display with metric or nautical units.
time (UTC)temp
F
wind
direction
speed
MPH
gust
MPH
rain 1hr
in
rain 24hr
in
rain mn
in
humidity
%
barometer
mb
20260506144518 60 358 7.0 12.0 0.00 0.02 0.00 92 1025.0
20260506143024 60 85 7.0 13.0 0.00 0.02 0.00 93 1025.2
20260506141517 60 37 9.0 16.0 0.00 0.02 0.00 93 1025.4
20260506140019 60 45 6.0 15.0 0.00 0.02 0.00 94 1025.5
20260506134516 60 26 7.0 13.0 0.00 0.02 0.00 94 1025.6
20260506133013 60 52 7.0 14.0 0.00 0.02 0.00 93 1025.6
20260506131511 60 24 11.0 19.0 0.00 0.02 0.00 93 1025.7
20260506130011 61 15 7.0 17.0 0.00 0.02 0.00 92 1025.7
20260506124509 61 7 11.0 17.0 0.00 0.02 0.00 90 1025.7
20260506123009 61 337 10.0 19.0 0.00 0.02 0.00 91 1025.7
20260506121508 61 40 11.0 19.0 0.00 0.02 0.00 92 1025.7
20260506120007 61 5 14.0 23.0 0.00 0.02 0.00 93 1025.8
20260506114505 60 358 11.0 21.0 0.00 0.02 0.00 93 1025.7
20260506113003 61 8 12.0 17.0 0.00 0.02 0.00 92 1025.7
20260506111503 60 16 8.0 14.0 0.00 0.02 0.00 94 1025.8
20260506110100 61 9 11.0 18.0 0.00 0.02 0.00 94 1025.9
20260506104635 60 332 8.0 14.0 0.00 0.02 0.02 94 1026.0
20260506103103 60 341 8.0 16.0 0.00 0.02 0.02 94 1026.0
20260506101559 61 331 12.0 19.0 0.00 0.02 0.02 93 1025.9
20260506100058 61 345 8.0 20.0 0.00 0.02 0.02 93 1026.0
20260506094558 61 325 10.0 16.0 0.00 0.02 0.02 94 1026.0
20260506093056 61 12 11.0 17.0 0.00 0.02 0.02 94 1026.0
20260506091556 61 25 15.0 23.0 0.00 0.02 0.02 93 1026.0
20260506090053 61 344 14.0 20.0 0.00 0.02 0.02 93 1026.0
20260506084553 61 10 13.0 24.0 0.00 0.02 0.02 92 1026.1
20260506083052 62 7 12.0 22.0 0.00 0.02 0.02 90 1026.2
20260506081559 61 23 13.0 21.0 0.00 0.02 0.02 91 1026.3
20260506073052 61 2 12.0 22.0 0.00 0.02 0.02 92 1026.5
20260506071601 61 15 12.0 22.0 0.00 0.02 0.02 92 1026.6
20260506061544 61 15 12.0 21.0 0.00 0.02 0.02 91 1026.3
20260506044538 62 27 19.0 28.0 0.00 0.02 0.02 89 1026.4
20260506043054 62 351 17.0 27.0 0.00 0.02 0.02 89 1026.4
20260506043026 62 349 18.0 27.0 0.00 0.02 0.02 88 1026.4
20260506041547 62 356 18.0 28.0 0.00 0.02 0.02 89 1026.4
20260506040059 62 25 17.0 25.0 0.00 0.02 0.02 89 1026.5
20260506034531 62 30 14.0 30.0 0.00 0.02 0.02 89 1026.4
20260506033054 62 26 24.0 31.0 0.00 0.02 0.02 88 1026.4
20260506031539 62 19 16.0 27.0 0.00 0.02 0.02 88 1026.3
20260506030030 62 38 15.0 28.0 0.00 0.02 0.02 88 1026.2
20260506024526 62 29 18.0 29.0 0.00 0.02 0.02 87 1026.3
20260506023042 62 341 20.0 29.0 0.00 0.02 0.02 86 1026.3
20260506021548 62 20 15.0 25.0 0.00 0.02 0.02 85 1026.1
20260506020019 63 23 19.0 31.0 0.00 0.02 0.02 84 1026.2
20260506014549 62 18 18.0 29.0 0.00 0.02 0.02 85 1026.3
20260506013044 62 36 16.0 27.0 0.00 0.02 0.02 85 1026.4
20260506011524 62 19 20.0 31.0 0.00 0.02 0.02 84 1026.6
20260506010003 62 20 21.0 33.0 0.00 0.02 0.02 84 1026.7
20260506004539 63 2 18.0 27.0 0.00 0.02 0.02 83 1026.9
20260506003027 62 6 16.0 25.0 0.00 0.02 0.02 83 1027.1
20260506001521 62 16 14.0 26.0 0.00 0.02 0.02 84 1027.1
20260506000053 62 15 11.0 24.0 0.00 0.02 0.02 84 1027.4
20260505234612 62 10 13.0 22.0 0.00 0.02 0.02 84 1027.5
20260505233011 61 27 15.0 25.0 0.00 0.02 0.02 86 1027.5
20260505231526 61 17 15.0 26.0 0.00 0.02 0.02 87 1027.7
20260505230032 60 7 14.0 22.0 0.00 0.02 0.02 87 1027.7
20260505224533 59 53 12.0 20.0 0.00 0.02 0.02 89 1027.8
20260505223030 59 13 15.0 25.0 0.00 0.02 0.02 90 1027.7
20260505221528 58 51 12.0 20.0 0.02 0.02 0.02 93 1027.8
20260505220023 58 15 13.0 16.0 0.02 0.02 0.02 93 1027.9
20260505214557 58 31 12.0 17.0 0.02 0.02 0.02 93 1027.9
20260505213031 58 6 11.0 17.0 0.02 0.02 0.02 94 1028.1
20260505211540 58 55 11.0 19.0 0.01 0.01 0.01 93 1028.1
20260505204524 58 29 7.0 15.0 0.00 0.00 0.00 92 1028.3
20260505203006 58 19 9.0 22.0 0.00 0.00 0.00 90 1028.4
20260505201507 59 32 13.0 21.0 0.00 0.00 0.00 88 1028.3
20260505200003 59 46 10.0 20.0 0.00 0.00 0.00 86 1028.0
20260505194502 59 5 10.0 17.0 0.00 0.00 0.00 86 1028.0
20260505193050 59 112 8.0 13.0 0.00 0.00 0.00 85 1028.0
20260505191503 59 67 9.0 17.0 0.00 0.00 0.00 85 1027.9
20260505190003 58 30 9.0 17.0 0.00 0.00 0.00 85 1027.9
20260505184601 58 26 10.0 16.0 0.00 0.00 0.00 86 1028.0
20260505183102 58 45 10.0 16.0 0.00 0.00 0.00 86 1028.0
20260505181559 58 23 4.0 12.0 0.00 0.00 0.00 85 1028.0
20260505174555 58 33 5.0 13.0 0.00 0.00 0.00 85 1028.2
20260505173054 58 20 5.0 19.0 0.00 0.00 0.00 83 1028.3
20260505171556 59 352 8.0 12.0 0.00 0.00 0.00 81 1028.3
20260505170053 58 64 6.0 15.0 0.00 0.00 0.00 81 1028.3
20260505164551 58 65 9.0 15.0 0.00 0.00 0.00 83 1028.5
20260505163050 58 5 7.0 15.0 0.00 0.00 0.00 83 1028.5
20260505161544 59 84 11.0 17.0 0.00 0.00 0.00 80 1028.8
20260505151545 59 354 10.0 19.0 0.00 0.00 0.00 77 1029.3